OBJECT X, 47953

Orbit data source: Space-Track

You're viewing an Uncataloged Satellite

Recently launched and/or uncataloged satellites may have evolving metadata. Metadata may include but not limited to: Owner, Maufacturer, Bus, Motor, and Mission.

OBJECT X, 47953 is a satellite in SSO that was launched on Mon, 22 Mar 2021 UTC via a SOYUZ-2-1A launch vehicle from the Tyuratam Missile And Space Complex (TTMTR). Unknown objects in Earth's orbit typically refer to objects detected orbiting the Earth but have not yet been identified or cataloged. These objects could be anything from previously untracked satellites, spent rocket stages, debris from satellite collisions, or even natural meteoroids temporarily captured by Earth's gravity.

Loading next visibility...
Identifier
47953, 2021-022X
Orbit
SSO
Country
Flag of TBDTBD
Related business
None
Manufacturer
Unknown
Mission
Commercial Technology
Bus & Motor
Unknown
Mass
Unknown
Launch date (UTC)
2021-03-22 (5 years ago)
Launch vehicle
SOYUZ-2-1A
Launch site
Tyuratam Missile And Space Complex (TTMTR)
Object type
Unknown
Shape & HBR
Box, 0.1 m
Radar Cross Section
0.035 m², Medium (>0.1 m² and < 1m²)

Expand to show TLE details & history
Last TLE update: 2 days ago

TLE from 2 days ago
0 OBJECT X
1 47953U 21022X   26171.87687997  .00098959  00000-0  65328-3 0  9990
2 47953  97.3902  89.1398 0006199  77.3297 282.8661 15.75286328291088
Epoch: 2026-06-20T21:02Z
TLE epoch observation values (Epoch: 2026-06-20T21:02:42.429Z)
Latitude
0.00001°
Longitude
-135.6222°
Altitude
346.056 km
Speed
7.702 km/s
True Right ascension
05h 56m 33s
True Declination
0° 00' 00"
Sunlit
Object was in daylight at epoch
Visualization orbit readout
Latitude
Unknown
Longitude
Unknown
Altitude
Unknown
Speed
Unknown
Apparent Right ascension
Unknown
Apparent Declination
Unknown
Sunlit
N/A
Visualization observer readout
Local Sidereal Time
21:42:32
Azimuth
Unknown
Elevation
Unknown
Doppler factor
Unknown
Orbital elements
Apogee altitude
344.873 km
Perigee altitude
336.543 km
Semi-major axis
6,718.845 km
Eccentricity
0.00062
Inclination
97.3902°
RAAN
89.1398°
Arg. of periapsis
77.3297°
True anomaly
282.79684°
Mean anomaly
282.8661°
Eccentric anomaly
282.83147°
Mean motion
3.94095 °/min
Orbital period
91.35 mins
BSTAR
0.00065328
Loading maneuver chart data...
Computing Atmospheric mass density...
Loading historical data...
Loading historical data...
Loading historical data...
Loading historical data...
Loading historical data...
Loading historical data...
Loading historical data...

Documentation

Showing up to 5 results
|